When you browse on this site, cookies collect data to enhance your experience and personalize the content and advertising you see.
Visit our Privacy Policy to learn more. By continuing to use the site, you agree to this use of cookies and data.
EN

Hourly Weather Mazari Sharif

Today, 6 August, Thursday

Time Temperature Precipitation Wind Pressure Humidity
00:00 +22°C° 0 mm 1 mps 651 mmHg 33%
01:00 +22°C° 0 mm 1 mps 651 mmHg 33%
02:00 +21°C° 0 mm 1 mps 651 mmHg 34%
03:00 +21°C° 0 mm 1 mps 650 mmHg 35%
04:00 +20°C° 0 mm 1 mps 650 mmHg 37%
05:00 +22°C° 0 mm 1 mps 651 mmHg 32%
06:00 +25°C° 0 mm 1 mps 652 mmHg 28%
07:00 +27°C° 0 mm 1 mps 654 mmHg 24%
08:00 +28°C° 0 mm 2 mps 654 mmHg 22%
09:00 +30°C° 0 mm 2 mps 654 mmHg 20%
10:00 +31°C° 0 mm 2 mps 654 mmHg 18%
11:00 +33°C° 0 mm 3 mps 654 mmHg 17%
12:00 +34°C° 0 mm 3 mps 654 mmHg 16%
13:00 +35°C° 0 mm 4 mps 654 mmHg 16%
14:00 +35°C° 0 mm 4 mps 654 mmHg 16%
15:00 +35°C° 0 mm 4 mps 653 mmHg 16%
16:00 +35°C° 0 mm 4 mps 653 mmHg 16%
17:00 +31°C° 0 mm 3 mps 653 mmHg 19%
18:00 +28°C° 0 mm 2 mps 652 mmHg 23%
19:00 +26°C° 0 mm 1 mps 652 mmHg 26%
20:00 +25°C° 0 mm 1 mps 652 mmHg 26%
21:00 +25°C° 0 mm 1 mps 652 mmHg 26%
22:00 +25°C° 0 mm 2 mps 652 mmHg 26%
23:00 +24°C° 0 mm 2 mps 651 mmHg 27%

Tomorrow, 7 August, Friday

Time Temperature Precipitation Wind Pressure Humidity
00:00 +24°C° 0 mm 2 mps 651 mmHg 28%
01:00 +23°C° 0 mm 2 mps 651 mmHg 29%
02:00 +23°C° 0 mm 1 mps 651 mmHg 30%
03:00 +22°C° 0 mm 1 mps 651 mmHg 31%
04:00 +22°C° 0 mm 1 mps 651 mmHg 32%
05:00 +24°C° 0 mm 1 mps 652 mmHg 28%
06:00 +27°C° 0 mm 1 mps 653 mmHg 24%
07:00 +29°C° 0 mm 1 mps 654 mmHg 20%
08:00 +31°C° 0 mm 2 mps 655 mmHg 19%
09:00 +33°C° 0 mm 3 mps 655 mmHg 17%
10:00 +34°C° 0 mm 3 mps 655 mmHg 16%
11:00 +35°C° 0 mm 4 mps 655 mmHg 15%
12:00 +36°C° 0 mm 4 mps 655 mmHg 14%
13:00 +36°C° 0 mm 5 mps 655 mmHg 14%
14:00 +36°C° 0 mm 5 mps 655 mmHg 14%
15:00 +36°C° 0 mm 5 mps 654 mmHg 14%
16:00 +36°C° 0 mm 4 mps 654 mmHg 13%
17:00 +34°C° 0 mm 4 mps 654 mmHg 16%
18:00 +30°C° 0 mm 3 mps 653 mmHg 18%
19:00 +28°C° 0 mm 2 mps 653 mmHg 21%
20:00 +27°C° 0 mm 2 mps 653 mmHg 22%
21:00 +26°C° 0 mm 3 mps 652 mmHg 23%
22:00 +26°C° 0 mm 3 mps 652 mmHg 24%
23:00 +25°C° 0 mm 3 mps 652 mmHg 25%

Day after tomorrow, 8 August, Saturday

Time Temperature Precipitation Wind Pressure Humidity
00:00 +24°C° 0 mm 3 mps 652 mmHg 27%
01:00 +24°C° 0 mm 3 mps 651 mmHg 28%
02:00 +22°C° 0 mm 3 mps 651 mmHg 29%
03:00 +22°C° 0 mm 3 mps 651 mmHg 30%
04:00 +21°C° 0 mm 3 mps 651 mmHg 31%
05:00 +24°C° 0 mm 3 mps 652 mmHg 29%
06:00 +25°C° 0 mm 3 mps 653 mmHg 27%
07:00 +27°C° 0 mm 3 mps 653 mmHg 24%
08:00 +28°C° 0 mm 4 mps 654 mmHg 23%
09:00 +29°C° 0 mm 4 mps 654 mmHg 21%
10:00 +32°C° 0 mm 4 mps 654 mmHg 19%
11:00 +32°C° 0 mm 5 mps 654 mmHg 19%
12:00 +33°C° 0 mm 6 mps 654 mmHg 18%
13:00 +34°C° 0 mm 6 mps 653 mmHg 17%
14:00 +34°C° 0 mm 6 mps 653 mmHg 18%
15:00 +34°C° 0 mm 6 mps 652 mmHg 18%
16:00 +34°C° 0 mm 6 mps 652 mmHg 18%
17:00 +32°C° 0 mm 5 mps 652 mmHg 21%
18:00 +29°C° 0 mm 4 mps 651 mmHg 24%
19:00 +26°C° 0 mm 4 mps 651 mmHg 27%
20:00 +25°C° 0 mm 3 mps 651 mmHg 29%
21:00 +24°C° 0 mm 3 mps 651 mmHg 31%
22:00 +23°C° 0 mm 2 mps 650 mmHg 33%
23:00 +23°C° 0 mm 2 mps 650 mmHg 34%

9 August, Sunday

Time Temperature Precipitation Wind Pressure Humidity
00:00 +21°C° 0 mm 3 mps 650 mmHg 35%
01:00 +21°C° 0 mm 3 mps 650 mmHg 35%
02:00 +21°C° 0 mm 3 mps 650 mmHg 36%
03:00 +20°C° 0 mm 2 mps 650 mmHg 37%
04:00 +20°C° 0 mm 2 mps 650 mmHg 38%
05:00 +21°C° 0 mm 2 mps 651 mmHg 35%
06:00 +24°C° 0 mm 2 mps 652 mmHg 31%
07:00 +26°C° 0 mm 2 mps 653 mmHg 27%
08:00 +27°C° 0 mm 3 mps 653 mmHg 25%
09:00 +28°C° 0 mm 3 mps 653 mmHg 22%
10:00 +30°C° 0 mm 3 mps 653 mmHg 20%
11:00 +32°C° 0 mm 4 mps 653 mmHg 19%
12:00 +32°C° 0 mm 5 mps 652 mmHg 18%
13:00 +33°C° 0 mm 5 mps 652 mmHg 17%
14:00 +33°C° 0 mm 5 mps 652 mmHg 16%
15:00 +33°C° 0 mm 5 mps 652 mmHg 16%
16:00 +33°C° 0 mm 5 mps 651 mmHg 16%
17:00 +30°C° 0 mm 4 mps 651 mmHg 19%
18:00 +28°C° 0 mm 3 mps 651 mmHg 21%
19:00 +26°C° 0 mm 2 mps 650 mmHg 24%
20:00 +25°C° 0 mm 2 mps 650 mmHg 25%
21:00 +24°C° 0 mm 2 mps 650 mmHg 27%
22:00 +23°C° 0 mm 2 mps 650 mmHg 28%
23:00 +21°C° 0 mm 2 mps 650 mmHg 29%

10 August, Monday

Time Temperature Precipitation Wind Pressure Humidity
00:00 +21°C° 0 mm 2 mps 650 mmHg 30%
01:00 +20°C° 0 mm 2 mps 650 mmHg 31%
02:00 +20°C° 0 mm 2 mps 650 mmHg 32%
03:00 +20°C° 0 mm 2 mps 650 mmHg 33%
04:00 +19°C° 0 mm 2 mps 650 mmHg 34%
05:00 +23°C° 0 mm 2 mps 650 mmHg 31%
06:00 +25°C° 0 mm 2 mps 651 mmHg 27%
07:00 +27°C° 0 mm 2 mps 652 mmHg 23%
08:00 +28°C° 0 mm 2 mps 652 mmHg 22%
09:00 +29°C° 0 mm 3 mps 652 mmHg 20%
10:00 +30°C° 0 mm 3 mps 653 mmHg 18%
11:00 +32°C° 0 mm 4 mps 652 mmHg 17%
12:00 +33°C° 0 mm 5 mps 652 mmHg 16%
13:00 +34°C° 0 mm 5 mps 652 mmHg 15%
14:00 +34°C° 0 mm 5 mps 652 mmHg 15%
15:00 +34°C° 0 mm 5 mps 652 mmHg 15%
16:00 +34°C° 0 mm 5 mps 651 mmHg 14%
17:00 +30°C° 0 mm 4 mps 651 mmHg 16%
18:00 +28°C° 0 mm 3 mps 651 mmHg 18%
19:00 +26°C° 0 mm 2 mps 650 mmHg 20%
20:00 +25°C° 0 mm 2 mps 650 mmHg 22%
21:00 +24°C° 0 mm 2 mps 650 mmHg 24%
22:00 +23°C° 0 mm 2 mps 650 mmHg 26%
23:00 +21°C° 0 mm 2 mps 650 mmHg 27%

11 August, Tuesday

Time Temperature Precipitation Wind Pressure Humidity
00:00 +21°C° 0 mm 2 mps 650 mmHg 28%
01:00 +20°C° 0 mm 2 mps 649 mmHg 29%
02:00 +20°C° 0 mm 2 mps 649 mmHg 30%
03:00 +19°C° 0 mm 2 mps 650 mmHg 30%
04:00 +19°C° 0 mm 2 mps 650 mmHg 31%
05:00 +21°C° 0 mm 2 mps 651 mmHg 28%
06:00 +24°C° 0 mm 2 mps 651 mmHg 25%
07:00 +26°C° 0 mm 2 mps 652 mmHg 22%
08:00 +28°C° 0 mm 3 mps 653 mmHg 21%
09:00 +29°C° 0 mm 3 mps 653 mmHg 19%
10:00 +30°C° 0 mm 4 mps 653 mmHg 18%
11:00 +32°C° 0 mm 4 mps 653 mmHg 17%
12:00 +33°C° 0 mm 5 mps 653 mmHg 16%
13:00 +34°C° 0 mm 6 mps 653 mmHg 14%
14:00 +34°C° 0 mm 5 mps 652 mmHg 14%
15:00 +34°C° 0 mm 5 mps 652 mmHg 14%
16:00 +33°C° 0 mm 5 mps 652 mmHg 14%
17:00 +30°C° 0 mm 4 mps 651 mmHg 16%
18:00 +28°C° 0 mm 4 mps 651 mmHg 19%
19:00 +26°C° 0 mm 3 mps 651 mmHg 22%
20:00 +24°C° 0 mm 3 mps 651 mmHg 24%
21:00 +23°C° 0 mm 2 mps 650 mmHg 27%
22:00 +21°C° 0 mm 1 mps 650 mmHg 29%
23:00 +21°C° 0 mm 1 mps 650 mmHg 30%
Show more